STARLINK-32227, 60361

Orbit data source: Space-Track

STARLINK-32227, 60361 is a payload satellite owned by SpaceX/Seattle (US) in LEO that was launched on Sun, 04 Aug 2024 UTC via an FALCON 9 launch vehicle from the Air Force Western Test Range (AFWTR). Payload-class satellites include a variety of spacecraft equipped with specific instruments for various scientific and technological missions. These include communications satellites like Starlink; space stations such as the ISS; scientific satellites like the Hubble; Earth observation satellites from companies like Planet Labs, Umbra, and HawkEye 360; GPS; miniature CubeSats for education and research; and military/defense satellites.

Loading next visibility...
Identifier
60361, 2024-138G
Orbit
LEO
Country
Flag of USUS
Related business
Manufacturer
SpaceX/Seattle
Mission
Operational Commercial Communications
Bus & Motor
STARLINK V2M, Unknown motor
Mass
730 kg wet, ~700 kg dry
Launch date (UTC)
2024-08-04 (1 year ago)
Launch vehicle
FALCON 9
Launch site
Air Force Western Test Range (AFWTR)
Object type
Payload
Rocket body
Debris
Shape & HBR
Box + 2 Pan, 14.5 m
Radar Cross Section
33.884 m², Large (>1 m²)

Expand to show TLE details & history
Last TLE update: 7 hours ago

TLE from 7 hours ago
0 STARLINK-32227
1 60361U 24138G   25258.57889413  .00000488  00000-0  28612-4 0  9994
2 60361  53.1612  43.2301 0001041  86.2344 273.8776 15.30196518 63820
Epoch: 2025-09-15T13:53Z
TLE epoch observation values (Epoch: 2025-09-15T13:53:36.452Z)
Latitude
-0.00002°
Longitude
-159.95333°
Altitude
476.077 km
Speed
7.629 km/s
True Right ascension
02h 52m 55s
True Declination
0° 00' 00"
Sunlit
Object was in full shadow at epoch
Visualization orbit readout
Latitude
Unknown
Longitude
Unknown
Altitude
Unknown
Speed
Unknown
Apparent Right ascension
Unknown
Apparent Declination
Unknown
Sunlit
N/A
Visualization observer readout
Local Sidereal Time
13:57:45
Azimuth
Unknown
Elevation
Unknown
Doppler factor
Unknown
Orbital elements
Apogee altitude
476.195 km
Perigee altitude
474.768 km
Semi-major axis
6,853.619 km
Eccentricity
0.0001
Inclination
53.1612°
RAAN
43.2301°
Arg. of periapsis
86.2344°
True anomaly
273.8657°
Mean anomaly
273.8776°
Eccentric anomaly
273.87165°
Mean motion
3.82528 °/min
Orbital period
94.11 mins
BSTAR
0.000028612
Loading maneuver chart data...
Computing Atmospheric mass density...
Loading historical data...
Loading historical data...
Loading historical data...
Loading historical data...
Loading historical data...
Loading historical data...
Loading historical data...

Documentation

Showing up to 5 results
|